カタログに戻る

OPS 5268

DMSP 5A F3

運用中気象SSO
NORAD 4953·PAYLOAD·🇺🇸 United States

打ち上げ Feb 17, 1971 から Vandenberg Space Force Base

Loading…

次のパス (今後24時間)

TLE

最新Source: Space-Track

元期: Sep 14, 2026, 01:49 UTC

1 04953U 71012A   26257.07586880  .00000146  00000-0  57100-4 0  9994
2 04953  98.4672 126.1161 0037566 158.0013 202.2799 14.42209866911590

AllMySatでOPS 5268をリアルタイム追跡

Download on the App Store